KF7SOJ Weather Reports


time (UTC)temp
F
wind
direction
speed
knots
gust
knots
rain 1hr
in
rain 24hr
in
rain mn
in
humidity
%
barometer
mb
20260906222115 81 62 7.8 11.3 0.00 0.00 0.00 51 928.8
20260906221614 81 100 7.8 9.6 0.00 0.00 0.00 52 928.8
20260906221109 80 80 11.3 13.0 0.00 0.00 0.00 52 928.8
20260906220604 80 80 11.3 13.0 0.00 0.00 0.00 52 928.8
20260906220100 81 100 10.4 11.3 0.00 0.00 0.00 52 928.7
20260906215558 81 102 9.6 12.2 0.00 0.00 0.00 51 928.7
20260906215057 80 64 8.7 10.4 0.00 0.00 0.00 53 928.8
20260906214556 80 94 7.0 11.3 0.00 0.00 0.00 54 928.6
20260906214051 80 59 9.6 12.2 0.00 0.00 0.00 53 928.9
20260906213550 80 70 9.6 9.6 0.00 0.00 0.00 53 929.1
20260906213045 80 80 7.8 9.6 0.00 0.00 0.00 53 928.7
20260906212537 79 78 7.0 7.8 0.00 0.00 0.00 54 929.0
20260906212033 79 78 7.0 7.8 0.00 0.00 0.00 54 929.0
20260906211533 79 78 7.0 7.8 0.00 0.00 0.00 54 929.1
20260906211028 79 78 7.0 7.8 0.00 0.00 0.00 54 929.3
20260906210524 80 111 11.3 12.2 0.00 0.00 0.00 53 929.3
20260906210023 79 99 7.0 8.7 0.00 0.00 0.00 54 929.3
20260906205519 79 111 7.0 10.4 0.00 0.00 0.00 54 929.3
20260906205015 0 0.0 0.0 0.00 0.00 0.00 929.5
20260906204514 0 0.0 0.0 0.00 0.00 0.00 929.7
20260906204009 0 0.0 0.0 0.00 0.00 0.00 929.7
20260906203504 77 73 7.8 9.6 0.00 0.00 0.00 57 929.7
20260906203003 77 73 7.8 9.6 0.00 0.00 0.00 57 929.9
20260906202500 77 73 7.8 9.6 0.00 0.00 0.00 57 929.9
20260906201955 77 73 7.8 9.6 0.00 0.00 0.00 57 929.9
20260906201449 77 73 7.8 9.6 0.00 0.00 0.00 57 930.0
20260906200944 77 73 7.8 9.6 0.00 0.00 0.00 57 930.1
20260906200441 77 73 7.8 9.6 0.00 0.00 0.00 57 930.2
20260906195940 77 73 7.8 9.6 0.00 0.00 0.00 57 930.3
20260906195437 77 73 7.8 9.6 0.00 0.00 0.00 57 930.3
20260906194933 77 73 7.8 9.6 0.00 0.00 0.00 57 930.2
20260906194428 77 73 7.8 9.6 0.00 0.00 0.00 57 930.5
20260906193924 77 73 7.8 9.6 0.00 0.00 0.00 57 930.4
20260906193419 76 125 3.5 3.5 0.00 0.00 0.00 60 930.4
20260906192914 76 105 5.2 7.8 0.00 0.00 0.00 60 930.7
20260906192414 76 88 3.5 4.3 0.00 0.00 0.00 60 930.5
20260906191913 76 115 5.2 5.2 0.00 0.00 0.00 60 930.7
20260906191409 76 115 5.2 5.2 0.00 0.00 0.00 60 931.0
20260906190908 73 48 4.3 6.1 0.00 0.00 0.00 64 930.9
20260906190407 73 48 4.3 6.1 0.00 0.00 0.00 64 930.8
20260906185902 73 48 4.3 6.1 0.00 0.00 0.00 64 931.0
20260906185401 73 48 4.3 6.1 0.00 0.00 0.00 64 931.1
20260906184900 73 359 3.5 5.2 0.00 0.00 0.00 63 931.3
20260906184355 73 359 3.5 5.2 0.00 0.00 0.00 63 931.5
20260906183851 73 359 3.5 5.2 0.00 0.00 0.00 63 931.5
20260906183348 73 359 3.5 8.7 0.00 0.00 0.00 63 931.5
20260906182847 73 342 5.2 5.2 0.00 0.00 0.00 64 931.8
20260906182343 73 336 2.6 5.2 0.00 0.00 0.00 64 931.9
20260906181843 70 70 3.5 4.3 0.00 0.00 0.00 70 931.9
20260906181340 70 70 3.5 4.3 0.00 0.00 0.00 70 932.0
20260906180835 70 70 3.5 4.3 0.00 0.00 0.00 70 932.0
20260906180330 70 70 3.5 4.3 0.00 0.00 0.00 70 932.0
20260906175827 70 70 3.5 4.3 0.00 0.00 0.00 70 932.3
20260906175323 70 70 3.5 4.3 0.00 0.00 0.00 70 932.3
20260906174822 70 70 3.5 4.3 0.00 0.00 0.00 70 932.4
20260906174321 70 70 3.5 4.3 0.00 0.00 0.00 70 932.6
20260906173816 70 70 3.5 4.3 0.00 0.00 0.00 70 932.6
20260906173312 70 70 3.5 4.3 0.00 0.00 0.00 70 932.4
20260906172811 70 17 6.1 7.8 0.00 0.00 0.00 69 932.4
20260906172308 69 22 4.3 6.1 0.00 0.00 0.00 69 932.7
20260906171808 69 22 4.3 6.1 0.00 0.00 0.00 69 932.6
20260906171302 69 22 4.3 6.1 0.00 0.00 0.00 69 932.6
20260906170758 69 22 4.3 6.1 0.00 0.00 0.00 69 932.8
20260906170254 69 22 4.3 6.1 0.00 0.00 0.00 69 932.6
20260906165750 69 22 4.3 6.1 0.00 0.00 0.00 69 932.7
20260906165249 69 27 5.2 6.1 0.00 0.00 0.00 68 932.8
20260906164750 68 345 2.6 3.5 0.00 0.00 0.00 69 932.8
20260906164250 68 63 3.5 3.5 0.00 0.00 0.00 70 933.0
20260906163746 68 63 3.5 3.5 0.00 0.00 0.00 70 932.9
20260906163242 68 27 4.3 5.2 0.00 0.00 0.00 70 933.1
20260906162739 68 355 2.6 5.2 0.00 0.00 0.00 70 932.9
20260906162233 68 314 0.9 2.6 0.00 0.00 0.00 71 933.0
20260906161733 68 312 0.9 1.7 0.00 0.00 0.00 71 933.1
20260906161233 68 9 2.6 3.5 0.00 0.00 0.00 69 932.9
20260906160732 68 5 1.7 3.5 0.00 0.00 0.00 68 933.0
20260906160231 68 53 0.9 0.9 0.00 0.00 0.00 68 932.9
20260906155729 67 246 0.0 0.9 0.00 0.00 0.00 69 933.0
20260906155224 67 246 0.0 0.9 0.00 0.00 0.00 69 933.0
20260906154720 67 246 0.0 0.9 0.00 0.00 0.00 69 932.9
20260906154215 67 246 0.0 0.9 0.00 0.00 0.00 69 932.8
20260906153713 0 0.0 0.0 0.00 0.00 0.00 932.9
20260906153208 63 234 2.6 3.5 0.00 0.00 0.00 73 933.0
20260906152703 63 234 2.6 3.5 0.00 0.00 0.00 73 932.9
20260906152202 63 234 2.6 3.5 0.00 0.00 0.00 73 932.7
20260906151657 63 234 2.6 3.5 0.00 0.00 0.00 73 932.7
20260906151154 63 234 2.6 3.5 0.00 0.00 0.00 73 932.9
20260906150649 63 234 2.6 3.5 0.00 0.00 0.00 73 933.0
20260906150144 63 234 2.6 3.5 0.00 0.00 0.00 73 932.9
20260906145643 63 234 2.6 3.5 0.00 0.00 0.00 73 933.0
20260906145143 63 234 2.6 3.5 0.00 0.00 0.00 73 933.1
20260906144637 63 234 2.6 3.5 0.00 0.00 0.00 73 933.0
20260906144132 63 234 2.6 3.5 0.00 0.00 0.00 73 932.9
20260906143632 62 244 5.2 5.2 0.00 0.00 0.00 74 932.9
20260906143130 62 244 5.2 5.2 0.00 0.00 0.00 74 932.8
20260906142628 62 245 5.2 7.0 0.00 0.00 0.00 74 932.8
20260906142123 62 281 4.3 8.7 0.00 0.00 0.00 75 932.9
20260906141622 61 255 3.5 5.2 0.00 0.00 0.00 77 933.0
20260906141118 61 203 3.5 3.5 0.00 0.00 0.00 76 932.9
20260906140617 61 203 3.5 6.1 0.00 0.00 0.00 77 933.1
20260906140112 60 255 3.5 5.2 0.00 0.00 0.00 77 932.6
20260906135609 60 234 7.0 7.8 0.00 0.00 0.00 77 933.0
20260906135105 60 241 4.3 7.0 0.00 0.00 0.00 77 932.9
20260906134600 60 265 3.5 4.3 0.00 0.00 0.00 77 932.3
20260906134100 60 294 1.7 3.5 0.00 0.00 0.00 76 932.3
20260906133556 61 288 4.3 5.2 0.00 0.00 0.00 75 932.5
20260906133051 61 255 2.6 5.2 0.00 0.00 0.00 76 932.7
20260906132547 60 231 4.3 5.2 0.00 0.00 0.00 77 932.8
20260906132042 60 208 3.5 3.5 0.00 0.00 0.00 77 932.9
20260906131537 60 173 0.0 2.6 0.00 0.00 0.00 79 932.7
20260906131032 60 210 3.5 5.2 0.00 0.00 0.00 79 933.0
20260906130532 60 194 1.7 4.3 0.00 0.00 0.00 79 932.6
20260906130027 60 358 2.6 2.6 0.00 0.00 0.00 78 932.3
20260906125524 61 232 1.7 2.6 0.00 0.00 0.00 76 932.3
20260906125019 61 232 1.7 2.6 0.00 0.00 0.00 76 932.6
20260906124514 60 145 0.0 0.0 0.00 0.00 0.00 77 932.7
20260906124009 60 299 0.0 0.0 0.00 0.00 0.00 78 932.4
20260906123508 60 299 0.0 0.0 0.00 0.00 0.00 78 932.6
20260906123003 59 254 1.7 2.6 0.00 0.00 0.00 78 932.6
20260906122457 60 3 2.6 2.6 0.00 0.00 0.00 74 932.6
20260906121954 60 3 2.6 2.6 0.00 0.00 0.00 74 932.5
20260906121449 60 3 2.6 2.6 0.00 0.00 0.00 74 932.5
20260906120946 60 3 2.6 2.6 0.00 0.00 0.00 74 932.6
20260906120441 60 3 2.6 2.6 0.00 0.00 0.00 74 932.6
20260906115937 60 3 2.6 2.6 0.00 0.00 0.00 74 932.6
20260906115433 60 3 2.6 2.6 0.00 0.00 0.00 74 932.7
20260906114932 60 3 2.6 2.6 0.00 0.00 0.00 74 932.9
20260906114426 60 3 2.6 2.6 0.00 0.00 0.00 74 932.8
20260906113922 60 3 2.6 2.6 0.00 0.00 0.00 74 932.7
20260906113421 60 3 2.6 2.6 0.00 0.00 0.00 74 932.6
20260906112917 60 3 2.6 2.6 0.00 0.00 0.00 74 932.7
20260906112412 0 0.0 0.0 0.00 0.00 0.00 932.8
20260906111908 0 0.0 0.0 0.00 0.00 0.00 932.7
20260906111407 0 0.0 0.0 0.00 0.00 0.00 932.4
20260906110902 0 0.0 0.0 0.00 0.00 0.00 932.5
20260906110357 63 17 0.9 0.9 0.00 0.00 0.00 68 932.5
20260906105856 63 17 0.9 0.9 0.00 0.00 0.00 68 932.1
20260906105352 63 17 0.9 0.9 0.00 0.00 0.00 68 932.4
20260906104848 63 17 0.9 0.9 0.00 0.00 0.00 68 932.3
20260906104346 63 17 0.9 0.9 0.00 0.00 0.00 68 932.7
20260906103845 63 17 0.9 0.9 0.00 0.00 0.00 68 933.0
20260906103344 63 17 0.9 0.9 0.00 0.00 0.00 68 933.1
20260906102840 63 17 0.9 0.9 0.00 0.00 0.00 68 933.3
20260906102338 63 17 0.9 0.9 0.00 0.00 0.00 68 933.1
20260906101834 63 17 0.9 0.9 0.00 0.00 0.00 68 933.0
20260906101329 63 17 0.9 0.9 0.00 0.00 0.00 68 933.1
20260906100825 63 346 1.7 3.5 0.00 0.00 0.00 68 933.0
20260906100323 63 343 2.6 5.2 0.00 0.00 0.00 68 932.8
20260906095819 63 349 4.3 5.2 0.00 0.00 0.00 67 932.9
20260906095314 63 355 4.3 4.3 0.00 0.00 0.00 67 932.7
20260906094813 63 346 5.2 6.1 0.00 0.00 0.00 67 932.4
20260906094309 64 350 4.3 4.3 0.00 0.00 0.00 66 932.5
20260906093805 64 355 3.5 4.3 0.00 0.00 0.00 66 932.4
20260906093301 64 344 4.3 5.2 0.00 0.00 0.00 66 932.5
20260906092755 64 337 3.5 6.1 0.00 0.00 0.00 66 932.6
20260906092250 64 350 2.6 3.5 0.00 0.00 0.00 65 932.6
20260906091745 64 358 2.6 3.5 0.00 0.00 0.00 65 932.6
20260906091241 64 343 2.6 4.3 0.00 0.00 0.00 64 932.4
20260906090738 64 354 3.5 4.3 0.00 0.00 0.00 64 932.6
20260906090236 64 341 2.6 4.3 0.00 0.00 0.00 64 932.4
20260906085736 64 342 3.5 3.5 0.00 0.00 0.00 62 932.4
20260906085235 64 341 4.3 5.2 0.00 0.00 0.00 62 932.3
20260906084730 64 356 4.3 5.2 0.00 0.00 0.00 61 932.4
20260906084231 64 0 2.6 3.5 0.00 0.00 0.00 61 932.6
20260906083725 64 353 5.2 5.2 0.00 0.00 0.00 60 932.6
20260906083221 64 344 3.5 4.3 0.00 0.00 0.00 60 932.5
20260906082716 64 357 4.3 5.2 0.00 0.00 0.00 60 932.6
20260906082211 64 356 5.2 6.1 0.00 0.00 0.00 59 932.7
20260906081707 64 351 4.3 4.3 0.00 0.00 0.00 59 932.6
20260906081201 64 359 4.3 5.2 0.00 0.00 0.00 58 932.5
20260906080659 64 353 4.3 5.2 0.00 0.00 0.00 58 932.3
20260906080154 64 348 3.5 4.3 0.00 0.00 0.00 58 932.6
20260906075654 64 355 3.5 5.2 0.00 0.00 0.00 58 932.7
20260906075148 64 358 4.3 5.2 0.00 0.00 0.00 57 932.7
20260906074644 64 0 2.6 3.5 0.00 0.00 0.00 57 932.5
20260906074143 64 358 4.3 4.3 0.00 0.00 0.00 56 932.7
20260906073637 65 354 3.5 4.3 0.00 0.00 0.00 55 932.9
20260906073133 65 2 3.5 3.5 0.00 0.00 0.00 55 932.8
20260906072628 65 2 3.5 4.3 0.00 0.00 0.00 55 932.8
20260906072125 65 0 3.5 4.3 0.00 0.00 0.00 55 932.9
20260906071621 65 356 4.3 4.3 0.00 0.00 0.00 55 932.8
20260906071121 65 3 3.5 4.3 0.00 0.00 0.00 55 932.9
20260906070617 65 351 4.3 5.2 0.00 0.00 0.00 54 932.9
20260906070113 65 12 3.5 4.3 0.00 0.00 0.00 54 932.8
20260906065612 65 18 3.5 3.5 0.00 0.00 0.00 53 932.9
20260906065108 65 357 4.3 4.3 0.00 0.00 0.00 54 932.8
20260906064603 64 6 2.6 3.5 0.00 0.00 0.00 54 933.1
20260906064059 64 357 2.6 3.5 0.00 0.00 0.00 54 933.0
20260906063554 65 4 3.5 3.5 0.00 0.00 0.00 55 933.2
20260906063050 65 4 3.5 3.5 0.00 0.00 0.00 55 933.0
20260906062545 65 23 3.5 4.3 0.00 0.00 0.00 55 933.0
20260906062044 65 21 4.3 5.2 0.00 0.00 0.00 54 933.0
20260906061540 66 9 3.5 4.3 0.00 0.00 0.00 54 933.0
20260906061039 66 26 4.3 4.3 0.00 0.00 0.00 53 933.2
20260906060536 68 358 4.3 5.2 0.00 0.00 0.00 46 933.1
20260906060033 68 358 4.3 5.2 0.00 0.00 0.00 46 933.2
20260906055529 68 358 4.3 5.2 0.00 0.00 0.00 46 933.2
20260906055024 68 358 4.3 5.2 0.00 0.00 0.00 46 933.1
20260906054524 68 358 4.3 5.2 0.00 0.00 0.00 46 933.2
20260906054019 68 358 4.3 5.2 0.00 0.00 0.00 46 933.3
20260906053515 68 358 4.3 5.2 0.00 0.00 0.00 46 933.1
20260906053011 68 6 3.5 3.5 0.00 0.00 0.00 46 933.0
20260906052507 68 3 5.2 7.0 0.00 0.00 0.00 46 933.0
20260906052003 68 1 3.5 4.3 0.00 0.00 0.00 46 933.1
20260906051459 68 359 4.3 5.2 0.00 0.00 0.00 46 933.3
20260906050955 68 352 4.3 5.2 0.00 0.00 0.00 45 933.2
20260906050454 69 351 4.3 4.3 0.00 0.00 0.00 43 933.2
20260906045953 69 351 4.3 4.3 0.00 0.00 0.00 43 932.9
20260906045452 69 351 4.3 4.3 0.00 0.00 0.00 43 932.9
20260906044948 69 0 4.3 5.2 0.00 0.00 0.00 43 932.9
20260906044443 69 11 4.3 7.0 0.00 0.00 0.00 43 932.8
20260906043939 69 2 6.1 7.0 0.00 0.00 0.00 43 932.8
20260906043435 69 1 5.2 7.0 0.00 0.00 0.00 43 932.8
20260906042930 69 0 4.3 6.1 0.00 0.00 0.00 42 932.9
20260906042429 69 346 6.1 7.8 0.00 0.00 0.00 42 933.1
20260906041924 69 352 4.3 6.1 0.00 0.00 0.00 42 933.0
20260906041420 69 346 5.2 5.2 0.00 0.00 0.00 42 932.9
20260906040920 69 342 7.0 7.8 0.00 0.00 0.00 43 932.8
20260906040415 68 343 5.2 7.0 0.00 0.00 0.00 44 932.8
20260906035911 68 347 6.1 7.0 0.00 0.00 0.00 44 932.7
20260906035406 68 355 6.1 7.0 0.00 0.00 0.00 44 932.7
20260906034901 68 0 3.5 6.1 0.00 0.00 0.00 43 932.6
20260906034355 68 0 5.2 6.1 0.00 0.00 0.00 43 932.7
20260906033852 68 350 5.2 5.2 0.00 0.00 0.00 43 932.7
20260906033351 69 358 3.5 5.2 0.00 0.00 0.00 42 932.6
20260906032847 69 3 4.3 4.3 0.00 0.00 0.00 42 932.9
20260906032343 69 353 3.5 4.3 0.00 0.00 0.00 42 932.7
20260906031838 69 356 3.5 4.3 0.00 0.00 0.00 42 932.8
20260906031333 69 357 2.6 4.3 0.00 0.00 0.00 43 932.8
20260906030833 69 1 2.6 3.5 0.00 0.00 0.00 43 932.7
20260906030329 69 11 2.6 5.2 0.00 0.00 0.00 43 932.6
20260906025829 69 19 4.3 4.3 0.00 0.00 0.00 43 932.7
20260906025323 70 28 3.5 5.2 0.00 0.00 0.00 42 932.5
20260906024822 70 22 3.5 5.2 0.00 0.00 0.00 41 932.6
20260906024321 70 15 4.3 5.2 0.00 0.00 0.00 41 932.6
20260906023817 71 33 5.2 5.2 0.00 0.00 0.00 41 932.5
20260906023312 71 29 3.5 4.3 0.00 0.00 0.00 41 932.7
20260906022808 71 16 3.5 5.2 0.00 0.00 0.00 41 932.4
20260906022306 71 26 3.5 5.2 0.00 0.00 0.00 40 932.6
20260906021759 71 25 5.2 5.2 0.00 0.00 0.00 40 932.4
20260906021257 72 34 4.3 5.2 0.00 0.00 0.00 40 932.3
20260906020752 72 31 3.5 5.2 0.00 0.00 0.00 39 932.3
20260906020252 72 26 4.3 5.2 0.00 0.00 0.00 39 932.4
20260906015752 73 25 4.3 5.2 0.00 0.00 0.00 39 932.2
20260906015251 74 25 3.5 4.3 0.00 0.00 0.00 38 932.4
20260906014746 75 37 4.3 7.8 0.00 0.00 0.00 36 932.3
20260906014241 76 40 5.2 7.8 0.00 0.00 0.00 35 932.3
20260906013737 77 53 7.8 7.8 0.00 0.00 0.00 35 932.3
20260906013237 77 47 7.0 8.7 0.00 0.00 0.00 34 932.3
20260906012732 77 39 5.2 7.8 0.00 0.00 0.00 34 932.2
20260906012227 77 47 7.0 7.8 0.00 0.00 0.00 33 932.2
20260906011722 78 66 7.0 8.7 0.00 0.00 0.00 33 932.3
20260906011217 78 49 7.0 9.6 0.00 0.00 0.00 33 932.3
20260906010713 78 69 5.2 7.8 0.00 0.00 0.00 34 932.3
20260906010209 78 65 4.3 7.0 0.00 0.00 0.00 34 932.1
20260906005709 78 78 7.0 9.6 0.00 0.00 0.00 34 932.3
20260906005208 79 83 10.4 11.3 0.00 0.00 0.00 33 932.2
20260906004707 79 83 7.8 10.4 0.00 0.00 0.00 32 932.2
20260906004202 80 84 7.8 10.4 0.00 0.00 0.00 32 932.1
20260906003658 80 80 8.7 11.3 0.00 0.00 0.00 31 932.2
20260906003154 80 92 6.1 10.4 0.00 0.00 0.00 32 932.1
20260906002654 81 88 5.2 9.6 0.00 0.00 0.00 30 932.2
20260906002148 81 87 7.0 11.3 0.00 0.00 0.00 29 932.3
20260906001644 81 80 12.2 12.2 0.00 0.00 0.00 27 932.0
20260906001143 82 85 7.8 13.9 0.00 0.00 0.00 28 932.0
20260906000639 81 87 9.6 13.0 0.00 0.00 0.00 27 932.1
20260906000134 82 101 8.7 12.2 0.00 0.00 0.00 28 932.2
20260905235633 82 98 9.6 11.3 0.00 0.00 0.00 27 932.3
20260905235129 82 93 10.4 11.3 0.00 0.00 0.00 28 932.2
20260905234624 82 100 11.3 11.3 0.00 0.00 0.00 27 932.1
20260905234120 82 92 11.3 11.3 0.00 0.00 0.00 26 931.9
20260905233620 82 97 9.6 10.4 0.00 0.00 0.00 26 931.9
20260905233114 82 81 10.4 13.0 0.00 0.00 0.00 26 931.9
20260905232609 83 88 13.0 13.0 0.00 0.00 0.00 26 932.1
20260905232105 82 93 6.1 10.4 0.00 0.00 0.00 26 932.0
20260905231600 83 115 12.2 13.0 0.00 0.00 0.00 25 931.9
20260905231056 83 115 12.2 13.0 0.00 0.00 0.00 25 931.8
20260905230556 83 86 8.7 14.8 0.00 0.00 0.00 26 932.0
20260905230055 83 101 8.7 12.2 0.00 0.00 0.00 25 932.0
20260905225554 83 98 10.4 12.2 0.00 0.00 0.00 25 932.0
20260905225050 83 78 5.2 7.8 0.00 0.00 0.00 26 931.9
20260905224550 83 111 12.2 13.9 0.00 0.00 0.00 26 931.9
20260905224049 83 118 12.2 13.0 0.00 0.00 0.00 26 931.8
20260905223547 82 106 10.4 12.2 0.00 0.00 0.00 26 931.9
20260905223043 83 101 9.6 12.2 0.00 0.00 0.00 25 931.9
20260905222542 83 101 9.6 12.2 0.00 0.00 0.00 25 931.9